Location: Hall+in+Tirol
(47.2830°N, 11.5170°E)
Time: 02:50:30
(UTC+02:00)

Gurwin Techsat 1B - Visible Passes

Search period start: 27 March 2017 00:00
Search period end: 06 April 2017 00:00
Orbit: 813 x 813 km, 98.6° (Epoch: 25 March)

Date Brightness Start Highest point End Pass type
(mag) Time Alt. Az. Time Alt. Az. Time Alt. Az.
27 Mar 9.5 03:20:24 10° NNE 03:24:09 47° NNE 03:24:09 47° NNE visible
27 Mar 10.2 05:01:34 10° NNW 05:05:06 18° WNW 05:05:22 18° WNW visible
28 Mar 9.9 02:57:42 10° NNE 03:01:11 37° NE 03:01:11 37° NE visible
28 Mar 9.8 04:38:12 10° N 04:42:24 26° WNW 04:42:24 26° WNW visible
29 Mar 10.4 02:35:10 10° NNE 02:38:13 27° ENE 02:38:13 27° ENE visible
29 Mar 9.4 04:15:03 10° N 04:19:26 38° NW 04:19:26 38° NW visible
30 Mar 10.8 02:12:53 10° NE 02:15:15 19° ENE 02:15:15 19° ENE visible
30 Mar 9.0 03:52:02 10° N 03:56:28 52° NW 03:56:28 52° NW visible
30 Mar 10.7 05:35:03 10° NW 05:36:09 11° NW 05:37:14 10° WNW visible
31 Mar 11.2 01:51:09 10° ENE 01:52:17 12° ENE 01:52:17 12° ENE visible
31 Mar 9.0 03:29:09 10° NNE 03:33:30 60° NNE 03:33:30 60° NNE visible
31 Mar 10.4 05:10:38 10° NNW 05:13:43 16° NW 05:14:43 15° WNW visible
01 Apr 9.4 03:06:24 10° NNE 03:10:32 49° NE 03:10:32 49° NE visible
01 Apr 9.9 04:47:09 10° N 04:51:14 23° WNW 04:51:45 22° WNW visible
02 Apr 9.9 02:43:47 10° NNE 02:47:33 34° ENE 02:47:33 34° ENE visible
02 Apr 9.5 04:23:55 10° N 04:28:39 33° WNW 04:28:47 33° WNW visible
03 Apr 10.5 02:21:24 10° NE 02:24:36 24° ENE 02:24:36 24° ENE visible
03 Apr 9.0 04:00:52 10° N 04:05:49 49° WNW 04:05:49 49° WNW visible
04 Apr 10.9 01:59:23 10° NE 02:01:38 16° ENE 02:01:38 16° ENE visible
04 Apr 8.7 03:37:55 10° NNE 03:42:50 71° NNW 03:42:50 71° NNW visible
04 Apr 10.5 05:19:48 10° NNW 05:22:20 14° NW 05:24:03 12° WNW visible
05 Apr 8.9 03:15:07 10° NNE 03:19:52 65° ENE 03:19:52 65° ENE visible
05 Apr 10.1 04:56:07 10° NNW 04:59:52 20° WNW 05:01:05 18° WNW visible
